Theta_e
333 341 356 357 356 354 352 348 346 343 341 340 340 342 344 345 343 340 339 337 335 333 331 335 339 341 344 343 342 340 339 335 333 334 333 332 334 334 334 336 337 331 338
337 345 357 357 356 354 352 348 345 342 340 339 339 342 343 341 338 337 336 335 334 333 331 332 334 335 338 339 338 337 338 338 333 333 334 332 333 333 334 337 334 329 337
341 348 353 357 357 354 351 348 344 341 338 337 336 339 337 335 338 337 336 335 333 333 331 331 331 332 334 335 336 336 336 335 333 333 334 327 325 333 335 337 334 334 336
345 348 349 356 355 354 351 347 344 341 338 336 336 336 336 336 336 336 335 335 333 333 332 331 330 330 330 331 333 335 335 335 335 335 327 326 326 333 336 337 337 336 336
344 347 349 356 355 354 350 347 345 342 339 337 337 336 337 337 337 337 338 337 336 335 333 331 331 332 333 333 333 332 332 333 337 334 325 323 323 328 335 336 338 336 337
341 343 350 355 356 354 351 347 345 342 340 337 337 336 337 340 341 342 341 343 340 337 334 332 332 331 332 334 336 338 337 336 337 327 325 324 324 330 335 335 335 337 335
338 342 348 356 356 354 351 348 346 344 341 339 337 338 339 339 342 343 345 344 338 337 334 333 334 335 335 334 335 337 338 339 331 325 323 322 320 332 334 336 336 336 336
338 343 349 353 355 354 351 349 347 345 345 341 339 338 340 338 340 342 342 340 338 336 335 335 336 337 337 336 336 335 338 338 332 326 324 322 327 334 336 335 336 337 338
340 343 346 348 351 350 349 349 348 347 347 344 341 340 340 340 336 340 343 341 339 337 336 337 338 337 336 336 337 338 339 337 331 328 328 325 331 337 339 339 338 338 338
341 344 344 345 346 345 345 348 347 346 345 344 342 340 340 338 337 338 342 340 339 338 338 338 337 337 338 338 338 339 338 337 329 327 327 327 335 339 341 341 341 340 340
340 342 344 344 344 343 343 344 345 345 343 342 339 337 334 328 327 330 334 336 338 339 338 338 339 339 340 338 338 338 336 330 328 325 326 331 336 339 341 341 341 341 341
334 336 342 341 341 340 343 339 338 339 337 336 333 330 329 326 325 327 329 334 338 339 339 338 340 339 333 330 328 330 325 325 323 324 325 333 337 338 338 339 340 340 340
332 334 338 338 338 339 339 335 334 333 333 332 330 328 328 327 323 325 324 325 325 328 327 329 328 329 323 321 320 318 317 318 318 321 324 330 329 331 332 335 336 337 340
324 330 335 336 335 336 334 334 333 331 330 329 329 329 326 323 323 323 324 330 329 327 326 320 315 310 309 309 308 308 308 310 310 314 315 322 326 328 330 330 332 334 338
320 327 331 334 334 335 332 332 330 329 329 328 328 328 325 324 324 325 325 320 315 315 310 306 305 303 303 303 303 303 303 304 304 306 308 317 322 321 322 325 329 326 326
310 324 329 332 334 333 331 330 328 327 328 327 326 326 328 326 322 311 312 312 309 306 304 302 300 300 299 299 299 300 299 297 300 302 305 304 315 314 319 321 320 319 320
316 323 329 331 333 332 330 330 329 329 330 329 326 326 322 315 311 310 308 306 303 301 300 297 297 298 296 297 295 297 297 296 299 297 300 300 303 308 313 313 314 314 316
317 324 328 334 332 331 330 331 329 328 319 313 312 312 311 310 308 306 304 301 299 297 297 295 295 295 294 293 293 295 294 296 296 293 296 297 300 298 303 307 309 309 312
316 322 327 331 331 330 327 321 316 312 310 308 308 307 306 305 302 300 299 298 296 295 295 294 293 293 292 293 294 295 292 295 293 292 292 293 296 294 297 300 304 304 306
315 318 327 330 327 319 313 311 308 307 305 305 303 302 300 299 297 296 296 296 295 294 293 292 291 292 292 291 295 294 291 295 291 290 291 292 291 291 294 292 294 295 303
314 316 325 322 315 313 310 308 306 303 301 299 299 297 296 296 295 294 294 294 293 292 291 291 291 290 291 291 290 290 291 291 290 290 291 289 290 291 291 292 294 293 293
314 316 317 313 311 312 310 305 305 302 299 295 294 293 294 294 294 294 293 292 291 290 289 289 289 289 289 290 288 287 285 287 289 291 289 290 288 290 290 292 292 292 292
313 314 312 311 309 308 305 304 302 300 297 293 292 292 292 293 293 293 291 291 290 289 288 287 287 287 286 287 288 286 282 282 285 287 287 287 288 287 289 290 291 291 291
311 313 311 310 308 306 305 304 301 296 294 294 292 290 290 291 291 292 291 289 289 288 287 287 288 286 286 284 287 289 286 285 282 281 285 287 286 287 286 287 290 290 289
309 310 310 308 306 303 302 301 299 297 296 293 290 289 289 289 290 290 289 288 287 287 286 285 285 284 285 284 284 284 283 284 284 282 279 281 285 286 286 287 287 288 288
306 307 307 306 303 302 301 299 299 296 294 291 289 288 288 288 288 288 288 287 286 286 285 285 284 284 283 283 283 282 282 281 281 280 279 281 280 283 284 286 287 286 287
Wind_Speed
5 7 13 13 15 16 16 14 12 11 9 7 6 9 12 12 10 6 6 7 7 5 3 6 8 9 10 5 5 2 2 1 2 6 7 7 5 5 5 8 10 2 6
9 8 13 12 13 16 15 14 11 11 9 9 7 11 11 11 7 6 6 6 5 4 4 5 5 6 6 6 4 1 2 5 4 5 6 5 5 5 6 6 4 4 6
10 8 10 11 13 14 15 13 11 11 10 8 8 8 6 7 8 6 6 6 4 4 3 3 5 6 5 4 4 4 4 2 1 4 5 3 4 8 8 9 4 6 9
10 7 7 12 12 14 14 13 11 10 10 10 10 9 8 7 8 7 8 6 4 3 2 3 3 4 4 5 6 6 7 5 4 6 3 3 4 10 9 12 7 8 9
8 6 7 13 13 15 15 13 12 10 9 9 7 5 1 6 10 9 10 11 8 5 3 1 2 3 3 4 5 6 7 8 4 5 4 4 4 8 11 8 8 8 9
7 7 8 13 13 15 14 14 13 11 9 8 8 4 2 2 4 8 9 9 10 7 4 1 0 2 4 6 7 8 8 8 5 3 4 6 6 10 11 13 11 10 10
7 6 7 13 14 15 15 13 13 12 10 8 8 7 5 2 4 8 14 4 7 5 3 2 3 4 5 6 7 9 8 7 3 3 4 5 6 12 13 13 13 12 12
10 7 7 12 13 15 14 13 13 12 11 9 8 9 7 2 5 3 6 7 6 4 3 4 5 6 7 8 7 8 8 7 4 4 5 5 10 13 14 14 14 15 13
6 8 6 7 10 14 14 13 12 13 12 11 8 8 7 5 1 3 5 6 5 3 4 6 7 9 9 9 9 9 8 8 5 4 5 4 11 13 13 13 14 15 15
6 7 8 7 7 7 7 12 12 12 9 10 7 6 5 5 3 1 2 1 4 6 6 8 9 9 9 10 10 10 9 9 5 5 4 5 13 14 14 14 14 14 15
5 7 7 8 8 6 6 6 9 9 9 10 8 6 4 2 3 3 4 6 6 7 7 8 8 8 9 9 10 11 11 3 4 4 3 11 13 15 17 16 16 16 16
8 7 8 8 8 7 6 5 5 4 4 4 4 3 3 3 3 3 4 5 6 7 8 9 11 11 8 3 3 6 3 5 4 4 3 13 15 15 16 16 15 16 16
8 5 9 8 8 8 5 4 2 2 3 3 4 3 3 1 1 0 1 2 2 4 3 4 4 3 6 5 4 4 4 4 3 3 5 11 12 13 13 14 16 16 15
8 12 10 9 8 7 4 4 4 3 3 3 3 4 3 1 1 1 1 2 2 2 4 4 3 4 6 6 6 6 6 4 3 3 5 12 12 13 12 12 13 15 16
9 10 11 10 9 7 6 4 4 4 3 3 4 4 3 3 2 3 4 4 4 4 4 4 4 5 5 6 5 6 6 6 6 3 3 12 15 17 16 15 16 18 19
11 10 9 11 8 8 6 6 4 4 4 4 3 4 4 3 4 4 4 5 5 4 4 4 4 5 5 4 6 6 5 5 5 6 4 5 15 18 17 18 17 18 19
7 7 12 10 9 10 9 6 5 4 5 4 4 5 5 6 6 5 4 5 4 4 4 4 5 5 5 5 6 5 5 6 5 6 5 4 6 14 17 19 19 19 19
5 8 9 10 10 10 8 5 4 5 6 5 5 6 7 8 5 5 5 5 4 4 4 5 4 4 5 5 5 5 4 4 5 7 5 5 5 6 9 19 19 19 19
5 7 8 11 11 10 8 7 7 7 6 5 5 5 7 8 6 6 5 4 5 5 5 4 4 4 4 6 6 5 4 2 4 5 6 6 6 5 5 12 16 16 18
4 7 8 9 11 10 9 8 7 6 6 4 5 5 8 6 6 6 5 6 5 5 5 4 5 4 2 4 5 7 4 1 2 4 4 4 5 6 5 5 5 6 17
4 7 9 13 11 10 9 8 7 6 4 4 5 6 8 6 6 7 5 5 5 5 4 5 3 5 3 6 3 5 3 1 2 4 3 3 5 5 5 6 6 5 5
7 7 8 11 10 8 7 4 5 5 4 4 3 5 7 7 6 6 6 5 6 4 6 6 5 3 3 4 3 1 5 6 3 12 4 4 6 4 7 8 8 6 5
8 9 10 10 9 8 10 9 8 7 4 3 3 4 4 6 6 6 6 5 5 4 4 3 4 5 3 3 5 3 4 3 6 3 5 2 10 4 7 6 7 6 6
7 7 11 11 10 9 10 12 15 6 5 2 3 3 4 6 6 6 6 6 5 3 5 3 4 3 2 2 3 3 1 3 4 7 3 8 3 9 6 5 7 5 6
8 10 10 10 9 8 9 10 8 7 4 4 4 7 6 5 6 6 6 6 5 4 3 4 4 4 2 1 1 2 2 3 4 3 11 6 8 7 7 7 5 7 6
7 8 10 12 7 8 9 8 11 10 9 7 5 5 4 3 4 5 5 5 4 4 3 3 3 4 3 2 1 2 1 2 3 3 6 11 12 8 5 9 9 5 5
Wind_Direction
221 203 199 178 170 160 156 154 151 137 140 133 137 142 139 138 137 134 130 101 110 81 42 344 14 38 61 94 114 132 126 98 6 10 347 338 317 291 259 249 235 243 280
151 180 178 175 171 159 160 154 151 143 147 141 136 154 152 147 132 133 124 117 116 71 31 344 353 14 43 46 39 322 276 273 346 351 332 336 317 297 278 263 173 225 274
151 167 168 178 164 162 154 150 155 147 146 149 147 154 152 137 136 136 143 124 118 93 56 4 358 357 359 359 352 342 332 320 312 319 331 351 316 295 268 265 235 273 267
153 157 160 169 164 161 154 158 159 155 155 154 155 160 177 192 163 155 161 167 181 161 97 35 19 4 348 330 321 305 303 306 320 309 356 329 320 304 279 260 230 265 274
153 154 164 173 173 166 161 165 166 169 167 172 173 144 169 193 203 191 183 170 182 178 147 91 46 347 341 330 325 314 312 310 322 319 332 321 309 302 302 265 252 278 289
157 157 175 175 174 164 167 168 172 172 177 179 184 166 176 190 238 215 205 179 172 170 165 151 33 300 311 304 303 298 301 304 334 307 302 298 302 292 291 282 269 258 266
164 165 171 180 177 170 171 172 176 177 177 179 184 182 191 15 358 220 208 180 158 172 173 233 285 308 310 303 297 298 281 274 267 253 270 279 278 283 283 277 277 268 260
164 170 170 180 182 177 172 177 181 183 187 177 181 187 181 227 9 16 128 136 168 191 230 267 286 287 289 288 289 286 292 293 287 253 251 256 269 281 283 278 275 278 263
164 161 169 173 178 175 177 179 187 193 195 161 180 190 197 197 258 33 148 164 205 248 256 275 287 296 297 296 294 288 285 280 274 257 258 247 262 277 279 273 270 270 272
166 172 171 167 172 177 180 183 191 210 187 154 168 172 178 213 223 21 100 222 247 263 278 289 296 299 296 295 295 292 290 283 265 264 257 255 274 283 285 281 280 272 268
184 184 175 178 177 176 179 189 191 185 170 166 172 176 177 211 228 223 218 235 259 266 282 292 296 289 284 291 305 311 310 288 277 270 267 271 279 287 292 289 279 276 278
204 202 191 186 180 168 183 180 173 164 163 162 169 183 181 207 209 215 229 257 270 295 306 313 314 329 341 332 327 332 334 326 315 295 289 305 312 317 317 309 298 294 291
217 200 199 192 183 174 179 160 163 156 159 166 189 187 201 198 4 87 351 336 332 311 318 329 333 0 20 23 7 8 358 4 344 332 321 326 328 325 329 324 326 324 309
201 205 197 190 179 176 158 162 164 156 169 174 195 188 176 140 242 233 47 43 48 10 29 31 39 28 27 16 17 12 14 5 360 342 342 346 0 10 4 5 3 4 359
222 209 198 181 178 170 157 151 156 173 169 183 190 193 150 156 122 91 77 67 52 40 47 37 29 25 18 8 11 12 7 2 348 351 353 357 24 30 20 20 28 22 15
226 203 180 185 170 153 146 151 164 158 169 156 143 132 131 129 108 86 71 70 56 50 42 44 38 33 18 0 355 356 4 352 1 10 4 360 24 24 23 30 20 18 14
211 175 175 163 152 149 142 142 159 159 126 103 98 100 103 96 92 86 78 66 49 43 51 39 33 32 20 357 350 344 2 357 13 15 13 7 8 17 22 19 16 15 11
204 176 150 149 146 138 139 132 107 107 104 98 98 95 96 90 82 88 84 65 47 48 44 41 25 22 10 359 334 329 353 354 22 25 18 9 11 15 12 15 14 12 11
199 147 138 136 137 128 114 99 90 88 88 89 95 89 88 85 79 85 75 67 51 49 39 26 28 39 14 350 327 316 346 344 28 13 20 7 18 6 0 4 7 7 4
152 129 123 126 123 121 111 103 91 87 74 73 82 91 87 80 77 79 69 58 50 51 32 20 28 8 34 337 314 313 321 282 20 29 15 4 8 10 350 349 351 344 354
148 131 139 135 140 134 127 119 111 113 107 81 79 77 82 81 73 73 69 60 52 60 50 30 3 12 337 350 337 326 325 289 267 5 358 357 12 359 347 355 347 334 331
163 147 130 140 142 136 133 105 117 127 82 90 79 72 74 77 75 78 79 68 56 55 40 35 35 352 347 8 340 301 349 329 330 327 347 355 355 337 347 341 328 323 329
160 147 140 140 133 121 121 109 99 95 74 78 51 68 60 80 78 81 76 74 65 64 53 40 34 43 357 330 25 70 349 305 320 315 315 347 336 326 323 306 300 308 307
160 137 138 141 131 134 137 134 144 138 138 148 118 103 89 78 77 78 79 77 71 60 51 23 37 37 69 22 326 36 219 240 312 319 295 313 301 314 293 291 293 295 292
148 146 140 133 130 131 128 137 131 117 115 112 105 110 91 75 74 74 79 75 68 57 50 45 26 22 29 34 14 321 290 261 246 272 302 309 305 308 300 288 279 296 281
136 140 140 138 129 127 126 129 136 136 136 133 135 115 111 93 78 67 71 70 62 51 37 27 18 19 8 359 320 312 262 293 291 280 286 304 297 306 306 300 288 279 276